Starlink 1680

operational
NORAD ID: 46558 Int'l Des: 2020-070 Owner: SPXS Country: US Constellation: starlink
LEOCIRCULARSTARLINK_TYPE

Über Starlink 1680

Beschreibung wird geladen...

Live-Position

3D-Globus wird geladen...

Nächste Überflüge

Höhenverlauf

Altitude vs Time

uPlot chart will show altitude changes over time

Zweizeiliger Elementsatz

1 46558U 20070AC 25352.33335648 .00196624 00000-0 31407-2 0 9994
2 46558 53.0476 147.1660 0008164 177.2079 196.1353 15.51970084 5713
Epoch: 18. Dez. 2025 • Age: 10 hours

Aktueller Status

Höhe 409.4 km
Geschwindigkeit 7.67 km/s
Subsatellitenpunkt 35.82°N, 61.88°W
Startdatum 6. Okt. 2020
Alter 5.1 years
Typ internet

Technische Details

Klassifizierung Payload
Masse 260.00 kg
Trockenmasse 248.00 kg
Gesamtmasse 260.00 kg
Länge 0.20 m
Durchmesser 2.80 m
Spannweite 9.00 m
Form Box + pan
Hersteller SPXS
Bus-Typ Starlink
Phasenstatus In Orbit
Besitzer/Staat SPXS/US

Große Konstellationen

Loading constellations...